SCOUT A DEB, 3214

Orbit data source: Space-Track

SCOUT A DEB, 3214 is space debris in LEO originally from a launch on Sat, 02 Mar 1968 UTC launched from the Air Force Western Test Range (AFWTR). Debris objects in space refer to the collection of defunct objects orbiting the Earth. Examples of debris include non-operational satellites, rocket bodies, and fragments generated from explosions, collisions, or faulty payload assembly.

Loading next visibility...
Identifier
3214, 1968-012D
Orbit
LEO
Last TLE update
1 day ago
Origin
Manufacturer
Unknown
Mission
Spacecraft
Bus & Motor
Unknown
Mass
Unknown
Launch date (UTC)
1968-03-02 (57 years ago)
Launch vehicle
Unknown
Launch site
Air Force Western Test Range (AFWTR)
Object type
Payload
Rocket body
Debris
Shape & HBR
Unknown
Radar Cross Section
Small (<0.1 m²)

Expand to show TLE details & history

TLE from 1 day ago
0 SCOUT A DEB
1 03214U 68012D   25187.79899907  .00000135  00000-0  24398-3 0  9996
2 03214  89.8342 109.4962 0186918 140.2710 278.0809 13.29170232538656
Epoch: 2025-07-06T19:10Z
TLE epoch observation values (Epoch: 2025-07-06T19:10:33.519Z)
Latitude
56.31679°
Longitude
-102.91348°
Altitude
1,142.167 km
Speed
7.295 km/s
True Right ascension
07h 18m 58s
True Declination
56° 09' 58"
Sunlit
Object was in daylight at epoch
Visualization orbit readout
Latitude
-17.70085°
Longitude
-103.23037°
Altitude
1,283.72 km
Speed
7.152 km/s
Apparent Right ascension
05h 44m 03s
Apparent Declination
-66° 41' 21"
Sunlit
Object is in daylight
Visualization observer readout
Local Sidereal Time
08:09:18
Azimuth
194.456° SSW
Elevation
-20.164°
Doppler factor
1
Orbital elements
Apogee altitude
1,287.631 km
Perigee altitude
1,006.316 km
Semi-major axis
7,525.111 km
Eccentricity
0.01869
Inclination
89.8342°
RAAN
109.4962°
Arg. of periapsis
140.271°
True anomaly
Unknown
Mean anomaly
278.0809°
Eccentric anomaly
Unknown
Mean motion
3.32486 °/min
Orbital period
108.28 mins
BSTAR
0.00024398
Loading maneuver chart data...
Loading SW <> Apogee altitude chart data...
Loading historical data...
Loading historical data...
Loading historical data...
Loading historical data...
Loading historical data...
Loading historical data...
Loading historical data...

SCOUT A DEB Visibility forecast

Observer location: undefined°, undefined°

Span
Click to sort rows by Start time (UTC) header in descending order
Start Az.
Max El. time (UTC)
Max El. Az.
Max El.
End time (UTC)
End Az.
11 mins2025-07-07 20:17:37.015Z220.565° SW2025-07-07 20:23:37.015Z280.602° WNW26.176°2025-07-07 20:28:37.015Z332.485° NNW
7 mins2025-07-08 05:51:37.015Z45.621° ENE2025-07-08 05:54:37.015Z81.916° E20.641°2025-07-08 05:58:37.015Z125.437° SE
10 mins2025-07-08 07:38:37.015Z346.134° N2025-07-08 07:42:37.015Z290.043° WNW37.777°2025-07-08 07:48:37.015Z205.22° SW
10 mins2025-07-08 17:59:37.015Z129.3° SE2025-07-08 18:04:37.015Z76.685° E26.846°2025-07-08 18:09:37.015Z23.138° NE
12 mins2025-07-08 19:46:37.015Z204.399° SW2025-07-08 19:52:37.015Z276.37° WNW35.721°2025-07-08 19:58:37.015Z344.123° N
|